Regional Weather Roundup
Issued by NWS

Home | Current Version | Previous Version | Text Only | Print | Product List | Glossary On
Versions: 1 2 3 4 5 6 7 8 9 10 11 12 13 14 15 16 17 18 19 20 21 22 23 24 25 26 27 28 29 30 31 32 33 34 35 36 37 38 39 40 41 42 43 44 45 46 47 48 49 50
369
ASUS43 KLSX 011757
RWRMO

WEATHER SUMMARY FOR MISSOURI
NATIONAL WEATHER SERVICE SPRINGFIELD MO
100 PM CDT SAT OCT 01 2016

NOTE: "FAIR" INDICATES FEW OR NO CLOUDS BELOW 12,000 FEET WITH NO
       SIGNIFICANT WEATHER AND/OR OBSTRUCTIONS TO VISIBILITY.
       CURRENT SKY AND/OR WEATHER CONDITIONS ARE NOT AVAILABLE FOR
       CHILLICOTHE AND FARMINGTON.

MOZ001>031-035>038-043-044-053-054-011900-
...NORTHERN AND WESTERN MISSOURI...

CITY           SKY/WX    TMP DP  RH WIND       PRES   REMARKS
KANSAS CTY INT CLOUDY    64  54  69 N3        30.12F
6HR MIN TEMP:  55; 6HR MAX TEMP:  64;

LEE`S SUMMIT   CLOUDY    65  55  70 NE6       30.12F
6HR MIN TEMP:  56; 6HR MAX TEMP:  65;

ST JOSEPH      CLOUDY    64  55  72 CALM      30.12F
6HR MIN TEMP:  56; 6HR MAX TEMP:  65;

CHILLICOTHE      N/A     65  58  78 VRB3      30.11F
6HR MIN TEMP:  60; 6HR MAX TEMP:  66;


$$
MOZ066>068-077>081-088>096-101>105-011900-
...SOUTHWEST MISSOURI...

CITY           SKY/WX    TMP DP  RH WIND       PRES   REMARKS
SPRINGFIELD    MOSUNNY   72  53  51 N6        30.09F
6HR MIN TEMP:  48; 6HR MAX TEMP:  72;

JOPLIN         SUNNY     74  52  46 N6        30.10F
6HR MIN TEMP:  48; 6HR MAX TEMP:  74;

BRANSON        MOSUNNY   72  50  46 W6        30.11F

$$
MOZ032>034-039>042-045>050-055>058-069>072-011900-
...CENTRAL MISSOURI...

CITY           SKY/WX    TMP DP  RH WIND       PRES   REMARKS
COLUMBIA       NOT AVBL
JEFFERSON CITY CLOUDY    66  57  72 W7        30.08F
6HR MIN TEMP:  58; 6HR MAX TEMP:  69;

ROLLA          CLOUDY    66  56  70 NW8       30.07F
6HR MIN TEMP:  56; 6HR MAX TEMP:  66;

SEDALIA        CLOUDY    66  55  67 NW3       30.11F
6HR MIN TEMP:  57; 6HR MAX TEMP:  67;


$$
MOZ051-052-059>065-011900-
...EAST CENTRAL MISSOURI...

CITY           SKY/WX    TMP DP  RH WIND       PRES   REMARKS
ST LOUIS INTL  CLOUDY    68  59  73 W13       30.05F
6HR MIN TEMP:  63; 6HR MAX TEMP:  69; 6HR PCP: TRACE;


$$
MOZ072>076-082>087-097>100-106>115-011900-
...SOUTH CENTRAL AND SOUTHEAST MISSOURI...

CITY           SKY/WX    TMP DP  RH WIND       PRES   REMARKS
CAPE GIRARDEAU PTSUNNY   70  59  68 W9        30.04F
6HR MIN TEMP:  58; 6HR MAX TEMP:  71;

POPLAR BLUFF   CLOUDY    72  58  61 VRB3      30.05F
6HR MIN TEMP:  57; 6HR MAX TEMP:  73;

WEST PLAINS    CLOUDY    68  53  58 NW7       30.11F
6HR MIN TEMP:  50; 6HR MAX TEMP:  71;


$$



USA.gov is the U.S. government's official web portal to all federal, state and local government web resources and services.